Regional Weather Roundup
Issued by NWS

Home | Current Version | Previous Version | Graphics & Text | Print | Product List | Glossary On
Versions: 1 2 3 4 5 6 7 8 9 10 11 12 13 14 15 16 17 18 19 20 21 22 23 24 25 26 27 28 29 30 31 32 33 34 35 36 37 38 39 40 41 42 43 44 45 46 47 48 49 50
000
ASUS43 KOAX 230502
RWRNE

WEATHER ROUNDUP FOR NEBRASKA
NATIONAL WEATHER SERVICE OMAHA NE
1200 AM CDT SUN APR 23 2017

NOTES: SATELLITE DATA IS BEING USED TO AUGMENT CLOUD COVER ABOVE
       12000 FEET.
       "FAIR" INDICATES FEW OR NO CLOUDS BELOW 12,000 FEET WITH NO
       SIGNIFICANT WEATHER AND/OR OBSTRUCTIONS TO VISIBILITY.

  * THESE STATIONS DO NOT REPORT WEATHER SUCH AS RAIN...SNOW OR FOG.

NEZ001>004-019>022-054>056-230600-
NEBRASKA PANHANDLE

CITY           SKY/WX    TMP DP  RH WIND       PRES   REMARKS
SCOTTSBLUFF    CLEAR     47  31  53 S9        30.14F
ALLIANCE       CLEAR     42  29  59 S12       30.13F
CHADRON        CLEAR     50  31  48 S14       30.08F
KIMBALL        CLEAR     38  34  84 S9        30.17F WCI  32
SIDNEY         CLEAR     37  32  82 S10       30.18F WCI  30
$$

NEZ057>060-069>072-079>082-230600-
SOUTHWEST NEBRASKA

CITY           SKY/WX    TMP DP  RH WIND       PRES   REMARKS
NORTH PLATTE   CLEAR     42  30  62 SE7       30.20F
IMPERIAL       CLEAR     45  32  60 S12       30.21F
LEXINGTON      CLEAR     44  29  57 S6        30.21F
MCCOOK         CLEAR     40  30  67 W9        30.23S WCI  34
OGALLALA       CLEAR     46  30  53 S10       30.18F
$$

NEZ005>010-023>029-035>040-094-230600-
NORTH CENTRAL NEBRASKA

CITY           SKY/WX    TMP DP  RH WIND       PRES   REMARKS
VALENTINE      CLEAR     52  27  38 S14       30.11F
AINSWORTH      CLEAR     46  34  63 S9        30.15F
BROKEN BOW     CLEAR     35  27  72 N3        30.19F
O`NEILL        CLEAR     47  33  57 S8        30.17F
ORD            CLEAR     45  31  58 SE3       30.19S
THEDFORD       CLEAR     47  27  44 S10       30.17F
$$

NEZ041-046>049-061>064-073>077-083>087-230600-
SOUTH CENTRAL NEBRASKA

CITY           SKY/WX    TMP DP  RH WIND       PRES   REMARKS
GRAND ISLAND   CLEAR     46  33  60 S7        30.22F
AURORA         CLEAR     47  27  45 CALM      30.21F
HASTINGS       CLEAR     44  28  53 CALM      30.22F
HEBRON         CLEAR     41  32  70 CALM      30.23S
HOLDREGE       CLEAR     45  25  45 S3        30.22F
KEARNEY *      CLEAR     46  27  46 CALM      30.22F
YORK           CLEAR     46  30  53 SE3       30.22S
$$

NEZ011>018-030>034-042>045-230600-
NORTHEAST NEBRASKA

CITY           SKY/WX    TMP DP  RH WIND       PRES   REMARKS
NORFOLK        CLEAR     46  32  58 S8        30.19S
ALBION         CLEAR     43  32  65 CALM      30.21S
BLAIR          CLEAR     52  32  46 CALM      30.19F
FREMONT        CLEAR     47  41  79 CALM      30.20F
TEKAMAH        CLEAR     48  40  73 SW3       30.19S
WAYNE          CLEAR     40  34  80 SW5       30.19S
$$

NEZ050>053-065>068-078-088>093-230600-
SOUTHEAST NEBRASKA

CITY           SKY/WX    TMP DP  RH WIND       PRES   REMARKS
LINCOLN        CLEAR     46  35  65 NW3       30.22F
OMAHA EPPLEY   CLEAR     49  35  58 E3        30.19F
BEATRICE       CLEAR     43  35  74 CALM      30.22S
FALLS CITY     CLEAR     47  33  58 NW3       30.20S
NEBRASKA CITY  CLEAR     54  21  28 CALM      30.20F
PLATTSMOUTH    CLEAR     55  23  29 CALM      30.19F
$$

NEZ044-045-051>053-067-230600-
OMAHA AREA

CITY           SKY/WX    TMP DP  RH WIND       PRES   REMARKS
OMAHA EPPLEY   CLEAR     49  35  58 E3        30.19F
BLAIR          CLEAR     52  32  46 CALM      30.19F
FREMONT        CLEAR     47  41  79 CALM      30.20F
MILLARD        CLEAR     47  40  75 CALM      30.19F
OFFUTT AFB     CLEAR     45  35  69 CALM      30.19F
PLATTSMOUTH    CLEAR     55  23  29 CALM      30.19F
WAHOO          FAIR      45  36  71 CALM      30.20F
$$




USA.gov is the U.S. government's official web portal to all federal, state and local government web resources and services.